THOR ABLESTAR DEB, 1099

Orbit data source: Space-Track

THOR ABLESTAR DEB, 1099 is space debris in LEO originally from a launch on Sun, 13 Dec 1964 UTC launched from the Air Force Western Test Range (AFWTR). Debris objects in space refer to the collection of defunct objects orbiting the Earth. Examples of debris include non-operational satellites, rocket bodies, and fragments generated from explosions, collisions, or faulty payload assembly.

Loading next visibility...
Identifier
1099, 1964-083G
Orbit
LEO
Country
Flag of USUS
Related business
Manufacturer
Unknown
Mission
Spacecraft
Bus & Motor
Unknown
Mass
Unknown
Launch date (UTC)
1964-12-13 (61 years ago)
Launch vehicle
Unknown
Launch site
Air Force Western Test Range (AFWTR)
Object type
Payload
Rocket body
Debris
Shape & HBR
Unknown shape, 0.5 m
Radar Cross Section
Medium (>0.1 m² and <1 m²)

Expand to show TLE details & history
Last TLE update: 12 hours ago

TLE from 12 hours ago
0 THOR ABLESTAR DEB
1 01099U 64083G   26071.75458096  .00000201  00000-0  24375-3 0  9997
2 01099  89.8156 139.8931 0038637 205.3513 271.5765 13.62810567969273
Epoch: 2026-03-12T18:06Z
TLE epoch observation values (Epoch: 2026-03-12T18:06:35.794Z)
Latitude
63.59927°
Longitude
-122.52551°
Altitude
1,035.852 km
Speed
7.34 km/s
True Right ascension
21h 18m 05s
True Declination
63° 28' 02"
Sunlit
Object was in daylight at epoch
Visualization orbit readout
Latitude
Unknown
Longitude
Unknown
Altitude
Unknown
Speed
Unknown
Apparent Right ascension
Unknown
Apparent Declination
Unknown
Sunlit
N/A
Visualization observer readout
Local Sidereal Time
10:04:50
Azimuth
Unknown
Elevation
Unknown
Doppler factor
Unknown
Orbital elements
Apogee altitude
1,051.12 km
Perigee altitude
993.933 km
Semi-major axis
7,400.664 km
Eccentricity
0.00386
Inclination
89.8156°
RAAN
139.8931°
Arg. of periapsis
205.3513°
True anomaly
271.13387°
Mean anomaly
271.5765°
Eccentric anomaly
271.35519°
Mean motion
3.40908 °/min
Orbital period
105.6 mins
BSTAR
0.00024375
Loading maneuver chart data...
Computing Atmospheric mass density...

Documentation

Showing up to 5 results
|